カタログに戻る

FLOCK 4G 18

運用中科学SSO
NORAD 62680·PAYLOAD·🇺🇸 United States

打ち上げ Jan 14, 2025 から Vandenberg Space Force Base

Loading…

次のパス (今後24時間)

TLE

最新Source: Space-Track

元期: Sep 14, 2026, 11:56 UTC

1 62680U 25009BZ  26257.49733742  .00034018  00000-0  95785-3 0  9992
2 62680  97.3950 339.3002 0004151  22.1392 338.0031 15.36376606150228

AllMySatでFLOCK 4G 18をリアルタイム追跡

Download on the App Store